Track TATIANA 2 now! 10-day predictions TATIANA 2 is classified as:
1 35868U 09049D 25317.88352194 .00000592 00000-0 27632-3 0 9999 2 35868 98.6887 277.1166 0004084 161.9465 198.1860 14.24107843839047